Location: �A�n Sefra
(34.9681°N, 0.4346°E)
Time: 05:11:41
(UTC+00:00)

Cosmos 2082 Rocket - Pass Details

Date: 21 October 2019
Orbit: 832 x 855 km, 71.0° (Epoch: 13 November)

Event Time Altitude Azimuth Distance (km) Brightness Sun altitude
Rises 17:59:50 0° 350° (N) 3,425 5.4 -9.6°
Reaches altitude 10° 18:02:40 10° 2° (N) 2,483 4.6 -10.2°
Maximum altitude 18:07:29 27° 60° (ENE) 1,560 3.1 -11.2°
Enters shadow 18:12:00 11° 116° (ESE) 2,385 4.0 -12.1°
